Regional Weather Roundup
Issued by NWS Portland, ME

Home | Current Version | Previous Version | Text Only | Print | Product List | Glossary On
Versions: 1 2 3 4 5 6 7 8 9 10 11 12 13 14 15 16 17 18 19 20 21 22 23 24 25 26 27 28 29 30 31 32 33 34 35 36 37 38 39 40 41 42 43 44 45 46 47 48 49 50
000
ASUS41 KGYX 190910
RWRGYX
WEATHER ROUNDUP FOR MAINE AND NEW HAMPSHIRE
NATIONAL WEATHER SERVICE GRAY ME
400 AM EST FRI DEC 19 2014

MEZ002-005-006-010-012-015-018-020-021-024-026-027-029-191000-
MAINE

CITY           SKY/WX    TMP DP  RH WIND       PRES   REMARKS
PORTLAND       PTCLDY    29  23  78 W5        29.83F
SANFORD        CLEAR     28  18  64 W3        29.83F
BAR HARBOR     CLOUDY    30  28  93 NW7       29.76S
WISCASSET      CLEAR     29  23  78 CALM      29.82S
ROCKLAND       CLEAR     28  25  86 W6        29.78S
FRYEBURG       MOCLDY    26  21  81 CALM      29.81F
LEWISTONAUBURN CLEAR     28  21  74 S5        29.80F
AUGUSTA        CLEAR     29  20  69 NW8       29.79F
WATERVILLE     CLEAR     28  19  69 CALM      29.76S
BANGOR         CLOUDY    29  23  78 NW9       29.77S
GREENVILLE       N/A     23  20  88 VRB7G23   29.70S
MILLINOCKET    CLOUDY    28  23  81 NW7       29.76R
HOULTON        CLOUDY    25  20  81 NW10      29.71R WCI  15
PRESQUE ISLE   CLOUDY    25  19  80 NW12G18   29.73R WCI  14
FRENCHVILLE    CLOUDY    21  18  88 N18G26    29.70S WCI   6
CARIBOU        CLOUDY    24  20  84 NW10      29.72R WCI  14
$$

NHZ002-005-008-009-011-012-014-191000-
NEW HAMPSHIRE

CITY           SKY/WX    TMP DP  RH WIND       PRES   REMARKS
PORTSMOUTH     MOCLDY    31  22  71 W7        29.84S
ROCHESTER      CLEAR     31  22  69 NW9       29.82F
NASHUA         CLOUDY    33  25  73 NW5       29.87F
MANCHESTER     PTCLDY    32  22  66 NW7       29.85S
CONCORD        CLEAR     30  22  72 NW6       29.86F
PLYMOUTH       CLOUDY    30  27  88 NW12G18   29.86S
BERLIN         CLOUDY    28  19  69 VRB5      29.82S
WHITEFIELD     CLOUDY    27  23  85 W5        29.85S
JAFFREY        CLOUDY    30  21  69 VRB7      29.85S
KEENE          CLOUDY    32  21  64 NW5       29.88S
LEBANON        CLOUDY    30  22  72 NW7       29.89S
MT WASHINGTON  FOG        9   9 100 NW25G35     N/A  VSB 1/16WCI -13
$$

VTZ005-007-008-191000-
VERMONT

CITY           SKY/WX    TMP DP  RH WIND       PRES   REMARKS
ST JOHNSBURY     N/A     29  22  75 MISG      29.87S
MONTPELIER     CLOUDY    24  21  88 NW8       29.92R
BURLINGTON     FLURRIES  28  21  75 N9        29.96R
$$

MAZ007-012-024-CTZ003-RIZ002-NYZ038-NYZ072-191000-
SOUTHERN NEW ENGLAND AND NY

CITY           SKY/WX    TMP DP  RH WIND       PRES   REMARKS
BOSTON         MOCLDY    35  24  64 W10       29.87S
WORCESTER      CLOUDY    30  24  78 NW12      29.85S
NANTUCKET      CLOUDY    38  28  67 NW12      29.87S
PROVIDENCE     CLOUDY    35  25  66 W8        29.89F
HARTFORD       CLOUDY    35  22  58 NW12      29.92R
ALBANY         CLOUDY    32  21  64 NW12      29.96S
NEW YORK CITY  PTCLDY    37  25  61 NW13      29.97S
$$

ANZ081-ANZ082-ANZ150-NHZ014-MEZ023>029-191000-
COASTAL MARINE OBSERVATIONS

STATION/POSITION TIME  TEMP    WIND        PRES    WAVE
                       AIR SEA DIR/SP/G            HT/PER
                 (UTC) (F)     (DEG/KT/KT) (MB)    (FT/S)
MOUNT DESERT ROC 0900   34                 1007.1R
MATINICUS ROCK   0800          320/ 24/ 27 1007.9F
PORTLAND WX BUOY 0850   35 43  300/ 10/ 12 1010.0F   1/11
WELLS            0800   31 40  250/  3/  3 1009.8R
ISLE OF SHOALS   0800   34     290/ 18/ 21 1009.7F
JEFFREYS LEDGE   0821      49                N/A     4/ 5
CASHES LEDGE BUO 0850   37 48  320/ 17/ 23 1008.7S   6/ 6
$$

.............KEY..............
   WCI - WIND CHILL
   TC  - TEMPERATURE IN CELSIUS
   VSB - VISIBILITY IN MILES
   HX  - HEAT INDEX
   FAIR- INDICATES FEW OR NO CLOUDS BELOW 12,000 FT, WITH NO
         SIGNIFICANT WEATHER AND/OR OBSTRUCTIONS TO VISIBILITY.




USA.gov is the U.S. government's official web portal to all federal, state and local government web resources and services.